Regional Weather Roundup
Issued by NWS Sterling, VA

Home | Current Version | Previous Version | Text Only | Print | Product List | Glossary On
Versions: 1 2 3 4 5 6 7 8 9 10 11 12 13 14 15 16 17 18 19 20 21 22 23 24 25 26 27 28 29 30 31 32 33 34 35 36 37 38 39 40 41 42 43 44 45 46 47 48 49 50
097
ASUS41 KLWX 250111
RWRLWX

REGIONAL WEATHER ROUNDUP
NATIONAL WEATHER SERVICE BALTIMORE MD/WASHINGTON DC
900 PM EDT THU MAY 24 2018

Note: "FAIR" indicates few or no clouds below 12,000 feet
with no significant weather and/or obstructions to visibility.
 TC=TEMPERATURE CELSIUS

 * =Non NWS site. Station does not report precipitation (e.g. rain,
    snow, etc.), thunder, or fog.

DCZ001-MDZ009-015-VAZ040>042-051-053>054-250200-
WASHINGTON METRO

CITY           SKY/WX    TMP DP  RH WIND       PRES   REMARKS
WASHINGTON NAT FAIR      74  56  53 S5        30.13R
DULLES         FAIR      69  55  60 S3        30.13R
ANDREWS AFB    FAIR      70  52  52 CALM      30.13R
FT BELVOIR     FAIR      67  60  79 CALM      30.13R
QUANTICO       FAIR      72  63  73 W5        30.14R
COLLEGE PARK*  FAIR      69  52  55 CALM      30.13R
LEESBURG*      FAIR      72  57  60 CALM      30.14R
MANASSAS*      FAIR      67  59  75 CALM      30.14R
GAITHERSBURG*  FAIR      71  52  50 CALM      30.15R

$$

MDZ006>007-011-014-250200-
BALTIMORE METRO

CITY           SKY/WX    TMP DP  RH WIND       PRES   REMARKS
BWI AIRPORT    FAIR      72  50  45 S3        30.12R
MD SCIENCE CTR   N/A     79  48  33 MISG      30.13R
MARTIN STATE   CLEAR     73  55  53 CALM      30.13R
ANNAPOLIS      FAIR      73  54  51 CALM      30.12S
FORT MEADE*    FAIR      63  55  77 CALM      30.15S

$$

MDZ012-015-019>023-250200-
MARYLAND EASTERN SHORE

CITY           SKY/WX    TMP DP  RH WIND       PRES   REMARKS
OCEAN CITY     FAIR      65  58  78 CALM      30.16R
SALISBURY      FAIR      66  58  75 S5        30.15R
BAY BRIDGE AP* FAIR      73  52  46 CALM      30.12S
CAMBRIDGE*       N/A     68  57  68 CALM      30.14R
EASTON*        CLEAR     72  55  56 CALM      30.16S

$$

MDZ017>025-250200-
SOUTHERN MARYLAND

CITY           SKY/WX    TMP DP  RH WIND       PRES   REMARKS
PATUXENT RIVER FAIR      73  58  59 S5        30.13R
ST INIGOES     FAIR      70  64  81 SE6       30.13R
LEONARDTOWN*   FAIR      64  54  68 CALM      30.16R

$$

MDZ003>005-250200-
NORTH CENTRAL MARYLAND

CITY           SKY/WX    TMP DP  RH WIND       PRES   REMARKS
FREDERICK*     FAIR      70  55  60 SE5       30.15R
HAGERSTOWN APT FAIR      75  52  44 S6        30.12S
WESTMINSTER*   FAIR      75  52  43 CALM      30.14S

$$

MDZ501>502-250200-
WESTERN MARYLAND

CITY           SKY/WX    TMP DP  RH WIND       PRES   REMARKS
OAKLAND*       FAIR      63  41  45 SE7       30.22R
CUMBERLAND*    FAIR      72  50  46 SE3       30.17R

$$

VAZ025>031-250200-
SHENANDOAH VALLEY

CITY           SKY/WX    TMP DP  RH WIND       PRES   REMARKS
WINCHESTER*    FAIR      63  52  67 CALM      30.16S
FRONT ROYAL*   FAIR      68  52  56 CALM      30.14R
LURAY*         FAIR      66  55  68 CALM      30.16R
NEW MARKET*    FAIR      63  47  56 CALM      30.14R
STAUNTON*      FAIR      70  55  59 CALM      30.20R
WAYNESBORO*    FAIR      70  54  55 S3        30.19R

$$

WVZ021-048>050-054>055-250200-
EASTERN WEST VIRGINIA PANHANDLE

CITY           SKY/WX    TMP DP  RH WIND       PRES   REMARKS
MARTINSBURG    FAIR      70  51  51 S5        30.12S
PETERSBURG*    FAIR      64  57  77 W6        30.15R

$$

VAZ036>039-050-250200-
CENTRAL FOOTHILLS

CITY           SKY/WX    TMP DP  RH WIND       PRES   REMARKS
CHARLOTTESVILL FAIR      74  55  51 SE3       30.15R
CULPEPER*      FAIR      64  59  82 CALM      30.15R
ORANGE*        FAIR      64  61  88 CALM      30.15R
GORDONSVILLE*  FAIR      66  58  74 CALM      30.15R
WARRENTON*     FAIR      64  56  77 CALM      30.14R

$$

VAZ055>057-250200-
NORTH AND CENTRAL PIEDMONT

CITY           SKY/WX    TMP DP  RH WIND       PRES   REMARKS
FREDERICKSBRG* FAIR      70  59  69 CALM      30.14R
STAFFORD*      FAIR      65  63  94 CALM      30.18R

$$

NCZ024-NYZ072-PAZ021-071-VAZ022-071-250200-
OTHER REGIONAL OBSERVATIONS

CITY           SKY/WX    TMP DP  RH WIND       PRES   REMARKS
NEW YORK CITY  FAIR      74  46  36 VRB3      30.10R
PHILADELPHIA   FAIR      72  48  42 S10       30.11R
PITTSBURGH     FAIR      76  48  37 CALM      30.11F
ROANOKE        FAIR      74  58  57 SE5       30.19S
RICHMOND       FAIR      74  59  59 CALM      30.15R
RALEIGH        FAIR      75  60  59 E3        30.15R

$$

ANZ530>537-250200-
MARINE OBSERVATIONS

STATION/POSITION TIME  TEMP    WIND        PRES
                       AIR SEA DIR/SP/G
                 (UTC) (F)     (DEG/KT/KT) (MB)
THOMAS PT LIGHT  0100   73 69  200/  5/  5 1021.0R
BALT KEY BRIDGE  0048   76     200/  5/  6 1019.8R
COVE POINT       0048   75     270/  2/  3 1020.9R
LEWISETTA        0048   72 77  180/  8/  9 1020.8R
SOLOMONS ISLAND  0048   72 74  100/  2/  5 1020.3R
PINEY POINT      0048          190/  9/ 10   N/A

$$





USA.gov is the U.S. government's official web portal to all federal, state and local government web resources and services.